[[{"header":{"parameterUnit":"m.s-1","parameterCategory":1,"la1":30.2991,"la2":30.254,"lo1":-89.0895,"lo2":-89.0444,"dy":0.0017,"dx":0.0017,"nx":28,"ny":28,"refTime":"2024-06-30T21:00:00:Z","depth":0,"parameterNumber":2,"parameterNumberName":"U-component_of_WINDS"},"data":[0,0,0,0,0,0,0,0,0,0,0,0,0,0,0,0,0,0,0,0,0,0,0,0,0,0,0,0,0,0,0,0,0,0,0,0,0,0,0,0,0,0,0,0,0,0,0,0,0,0,0,0,0,0,0,0,0,0,-2.1986,-2.1986,0,-2.1967,-2.1966,-2.1966,-2.194,-2.194,-2.1939,-2.1939,-2.192,-2.192,-2.192,0,0,0,0,0,0,0,0,0,0,0,0,0,-2.2004,-2.2004,-2.1986,-2.1986,-2.1986,-2.1967,-2.1966,-2.1966,-2.194,-2.194,-2.1939,-2.1939,-2.192,-2.192,-2.192,0,0,0,0,0,0,0,0,0,0,0,0,0,-2.1992,-2.2004,-2.1986,-2.197,-2.1969,-2.1967,-2.1966,-2.1966,-2.194,-2.194,-2.1939,-2.1939,-2.192,-2.192,-2.192,-2.1932,0,0,-2.1919,-2.1919,0,0,0,0,0,0,0,0,-2.1993,-2.1991,-2.1973,-2.1972,-2.197,-2.1955,-2.1966,-2.1955,-2.1941,-2.1951,-2.1939,-2.1938,-2.1932,-2.1931,-2.1929,-2.1931,-2.193,-2.1919,-2.1919,-2.1919,-2.1919,0,0,0,0,0,0,0,-2.1994,-2.1992,-2.1978,-2.1973,-2.1971,-2.1966,-2.1963,-2.1964,-2.1946,-2.195,-2.1948,-2.1946,-2.1931,-2.1929,-2.1928,-2.193,-2.1919,-2.1919,-2.1919,-2.1919,-2.1944,-2.1945,0,0,0,0,0,0,-2.1996,-2.1993,-2.1979,-2.1978,-2.198,-2.1966,-2.1963,-2.1961,-2.1946,-2.1943,-2.1947,-2.1945,-2.193,-2.1928,-2.1927,-2.1942,-2.1919,-2.1919,-2.1919,-2.1943,-2.1944,-2.1945,0,0,0,0,0,0,-2.1997,-2.1995,-2.198,-2.1985,-2.1982,-2.1966,-2.1964,-2.196,-2.1958,-2.1943,-2.194,-2.1948,-2.1929,-2.1928,-2.1932,-2.1941,-2.1919,-2.1919,-2.1942,-2.1944,-2.1945,-2.197,0,0,0,0,0,0,-2.1998,-2.1996,-2.1999,-2.1985,-2.1982,-2.1983,-2.1964,-2.1961,-2.1958,-2.1955,-2.1943,-2.194,-2.1929,-2.1932,-2.1931,-2.194,-2.1919,-2.1942,-2.1943,-2.1944,-2.1968,-2.1971,-2.1974,0,0,0,0,0,-2.1998,-2.2006,-2.1999,-2.1998,-2.1986,-2.1983,-2.1982,-2.1968,-2.1959,-2.1962,-2.1954,-2.1941,-2.1941,-2.1932,-2.1932,-2.194,-2.1941,-2.1943,-2.1944,-2.1966,-2.1971,-2.1974,0,0,0,0,0,0,-2.202,-2.2004,-2.1996,-2.1999,-2.1993,-2.1979,-2.1983,-2.1972,-2.1969,-2.1966,-2.195,-2.1948,-2.1954,-2.1948,-2.1939,-2.1953,-2.1939,-2.1941,-2.1956,-2.196,-2.1963,-2.1964,-2.1918,0,0,0,0,0,-2.2026,-2.2025,-2.2011,-2.2015,-2.2013,-2.1999,-2.1997,-2.1987,-2.198,-2.1977,-2.1968,-2.1963,-2.1962,-2.1961,-2.1959,-2.1968,-2.1966,-2.1974,-2.1978,-2.198,-2.1981,-2.1988,-2.1992,-2.1951,-2.1951,-2.1951,0,0,-2.2036,-2.2027,-2.2027,-2.2019,-2.2013,-2.2014,-2.1996,-2.1996,-2.1997,-2.1977,-2.198,-2.1974,-2.1967,-2.1974,-2.1977,-2.197,-2.1993,-2.1983,-2.1985,-2.1984,-2.1991,-2.1994,-2.1998,-2.1952,-2.1952,-2.1952,0,0,-2.2056,-2.2049,-2.2052,-2.2048,-2.2039,-2.2031,-2.2032,-2.2021,-2.2016,-2.2019,-2.2005,-2.2007,-2.2004,-2.2001,-2.1998,-2.2022,-2.2011,-2.2022,-2.2039,-2.2046,-2.2049,-2.2052,-2.2061,-2.2064,-2.2024,-2.2024,-2.2024,0,-2.207,-2.2069,-2.2056,-2.2057,-2.2055,-2.204,-2.2044,-2.204,-2.2032,-2.2032,-2.2024,-2.2023,-2.2017,-2.2024,-2.203,-2.2029,-2.2031,-2.2022,-2.205,-2.2052,-2.2055,-2.2063,-2.2067,-2.2025,-2.2025,-2.2025,-2.2025,0,-2.2087,-2.2087,-2.2092,-2.2085,-2.2083,-2.2087,-2.2076,-2.2076,-2.2069,-2.2062,-2.2067,-2.206,-2.2057,-2.2059,-2.2051,-2.2066,-2.2062,-2.2052,-2.2037,-2.206,-2.2068,-2.2071,-2.2027,-2.2027,-2.2026,-2.2026,0,0,-2.2115,-2.2105,-2.2106,-2.2104,-2.2096,-2.2096,-2.2101,-2.2099,-2.21,-2.2097,-2.2101,-2.2102,-2.2094,-2.2092,-2.2084,-2.209,-2.2111,-2.208,-2.208,-2.2086,-2.213,-2.2136,-2.214,-2.2105,-2.2106,-2.2106,-2.213,0,-2.2133,-2.2138,-2.2128,-2.2137,-2.2138,-2.2125,-2.2129,-2.2126,-2.2121,-2.2123,-2.2118,-2.2119,-2.2108,-2.2107,-2.2113,-2.2107,-2.2119,-2.2106,-2.2109,-2.2109,-2.2109,-2.2144,-2.2149,-2.2172,-2.2133,-2.2134,-2.2134,0,-2.2152,-2.215,-2.2159,-2.2153,-2.2153,-2.2157,-2.2156,-2.2158,-2.2155,-2.2151,-2.2151,-2.2143,-2.2149,-2.2137,-2.2146,-2.2137,-2.2139,-2.2137,-2.2138,-2.2136,-2.2121,-2.2142,-2.2179,-2.2182,-2.2139,-2.2138,-2.2138,0,-2.2172,-2.2172,-2.2178,-2.2177,-2.217,-2.2174,-2.2171,-2.2168,-2.2169,-2.2169,-2.217,-2.2171,-2.2171,-2.2174,-2.2167,-2.2158,-2.2178,-2.2164,-2.2176,-2.2176,-2.2178,-2.2177,-2.2214,-2.2181,-2.2181,-2.2181,-2.2181,0,-2.2191,-2.2197,-2.2187,-2.219,-2.2197,-2.2188,-2.2196,-2.2193,-2.2191,-2.2195,-2.2185,-2.2189,-2.2181,-2.2185,-2.218,-2.2189,-2.219,-2.2188,-2.2186,-2.2188,-2.2188,-2.2187,-2.2185,-2.2182,-2.2182,-2.2182,-2.2182,0,-2.2213,-2.2207,-2.2212,-2.2207,-2.2206,-2.2212,-2.2208,-2.2212,-2.2208,-2.2214,-2.2214,-2.2209,-2.2213,-2.2208,-2.2211,-2.2209,-2.2221,-2.2218,-2.2222,-2.222,-2.2232,-2.223,-2.2268,-2.2273,-2.2238,-2.2238,-2.2239,0,-2.2225,-2.2229,-2.2225,-2.2227,-2.2226,-2.2229,-2.223,-2.2223,-2.2225,-2.2225,-2.2229,-2.2234,-2.2236,-2.2245,-2.2242,-2.2246,-2.2242,-2.2255,-2.2242,-2.2245,-2.2242,-2.2241,-2.2242,-2.2257,-2.2257,-2.2258,-2.2258,0,-2.2246,-2.2244,-2.2246,-2.2247,-2.2249,-2.225,-2.2251,-2.2253,-2.2247,-2.225,-2.2254,-2.2257,-2.2262,-2.2267,-2.2271,-2.2271,-2.2264,-2.2263,-2.2266,-2.2266,-2.2268,-2.2267,-2.2228,-2.2261,-2.2261,-2.2261,-2.226,-2.226,-2.2263,-2.2267,-2.2266,-2.2269,-2.2269,-2.2271,-2.2275,-2.2273,-2.2277,-2.228,-2.2277,-2.2283,-2.2285,-2.2289,-2.229,-2.2297,-2.2291,-2.2295,-2.2296,-2.2296,-2.2298,-2.2269,-2.2298,-2.2298,-2.2298,-2.2297,-2.2297,0,-2.2284,-2.2284,-2.2287,-2.2288,-2.2292,-2.2287,-2.2288,-2.2291,-2.2297,-2.2298,-2.2302,-2.2309,-2.2315,-2.2315,-2.232,-2.2326,-2.2323,-2.2328,-2.2326,-2.2327,-2.2303,-2.2299,-2.233,-2.233,-2.233,-2.233,-2.233,-2.233,-2.2295,-2.2302,-2.2301,-2.2309,-2.2309,-2.2315,-2.2316,-2.2319,-2.232,-2.2329,-2.2333,-2.2333,-2.2335,-2.2342,-2.2348,-2.2348,-2.235,-2.2356,-2.2354,-2.2331,-2.2328,-2.2325,-2.2322,-2.2356,-2.2356,-2.2378,-2.2378,-2.2378]},{"header":{"parameterUnit":"m.s-1","parameterCategory":1,"la1":30.2991,"la2":30.254,"lo1":-89.0895,"lo2":-89.0444,"dy":0.0017,"dx":0.0017,"nx":28,"ny":28,"refTime":"2024-06-30T21:00:00:Z","depth":0,"parameterNumber":3,"parameterNumberName":"V-component_of_WINDS"},"data":[0,0,0,0,0,0,0,0,0,0,0,0,0,0,0,0,0,0,0,0,0,0,0,0,0,0,0,0,0,0,0,0,0,0,0,0,0,0,0,0,0,0,0,0,0,0,0,0,0,0,0,0,0,0,0,0,0,0,2.0155,2.0155,0,2.0181,2.0181,2.0182,2.0231,2.0232,2.0233,2.0234,2.0259,2.0258,2.0258,0,0,0,0,0,0,0,0,0,0,0,0,0,2.0145,2.0144,2.0155,2.0155,2.0155,2.0181,2.0181,2.0182,2.0231,2.0232,2.0233,2.0234,2.0259,2.0258,2.0258,0,0,0,0,0,0,0,0,0,0,0,0,0,2.0158,2.0144,2.0155,2.0183,2.0186,2.0181,2.0181,2.0182,2.0231,2.0232,2.0234,2.0235,2.0259,2.0258,2.0258,2.0227,0,0,2.0257,2.0257,0,0,0,0,0,0,0,0,2.0157,2.0158,2.0178,2.0181,2.0184,2.0204,2.0187,2.0197,2.023,2.0213,2.0234,2.0236,2.0239,2.024,2.0242,2.0228,2.0229,2.0257,2.0257,2.0257,2.0256,0,0,0,0,0,0,0,2.0156,2.0157,2.0165,2.0179,2.0182,2.0194,2.0197,2.0189,2.0218,2.0215,2.0219,2.0221,2.0241,2.0242,2.0243,2.023,2.0257,2.0257,2.0256,2.0256,2.0191,2.0189,0,0,0,0,0,0,2.0151,2.0156,2.0164,2.0166,2.0174,2.0193,2.0197,2.0196,2.0218,2.0223,2.022,2.0224,2.0242,2.0244,2.0244,2.0208,2.0257,2.0256,2.0256,2.0192,2.019,2.0189,0,0,0,0,0,0,2.0151,2.0151,2.0163,2.0162,2.0164,2.0191,2.0191,2.0196,2.0198,2.0222,2.0227,2.0216,2.0244,2.0245,2.0231,2.021,2.0256,2.0256,2.0194,2.0192,2.019,2.0137,0,0,0,0,0,0,2.015,2.0151,2.014,2.0161,2.0164,2.015,2.0189,2.0196,2.0197,2.0202,2.022,2.0224,2.0245,2.0231,2.0231,2.021,2.0255,2.0196,2.0193,2.019,2.014,2.0133,2.0126,0,0,0,0,0,2.015,2.0123,2.0139,2.014,2.0151,2.0148,2.015,2.0175,2.0195,2.0184,2.02,2.0224,2.0213,2.0229,2.0229,2.0208,2.0197,2.0194,2.0191,2.0143,2.0134,2.0127,0,0,0,0,0,0,2.0097,2.0127,2.0144,2.0124,2.0134,2.0157,2.0143,2.0165,2.0168,2.0172,2.0202,2.0206,2.0187,2.0197,2.0215,2.0179,2.0209,2.0205,2.0173,2.0165,2.0158,2.0155,2.0255,0,0,0,0,0,2.0084,2.008,2.0106,2.0086,2.009,2.0115,2.0115,2.0134,2.0144,2.0148,2.0163,2.0172,2.017,2.0168,2.0169,2.0143,2.0147,2.0129,2.0122,2.0116,2.0111,2.0097,2.0089,2.0177,2.0178,2.0178,0,0,2.0055,2.0071,2.0066,2.0076,2.0085,2.0079,2.0118,2.0111,2.0107,2.0147,2.0134,2.0146,2.0157,2.0137,2.0129,2.0144,2.0088,2.0111,2.0107,2.0105,2.0093,2.0085,2.0077,2.0175,2.0176,2.0176,0,0,2.0,2.0012,1.9996,2.0005,2.0019,2.0037,2.0033,2.0053,2.0062,2.0051,2.008,2.0076,2.0073,2.008,2.0083,2.0031,2.0053,2.0031,1.9993,1.9979,1.9972,1.9966,1.9946,1.9939,2.0027,2.0027,2.0027,0,1.9962,1.9955,1.9985,1.9976,1.9978,2.0016,1.9999,2.0007,2.002,2.002,2.0038,2.0035,2.0046,2.0027,2.0014,2.0016,2.0012,2.0028,1.9971,1.9965,1.996,1.9941,1.9934,2.0024,2.0024,2.0024,2.0025,0,1.9907,1.9902,1.9888,1.99,1.9902,1.9889,1.9916,1.9914,1.9933,1.9948,1.9936,1.995,1.9953,1.9951,1.9969,1.9935,1.9944,1.9966,1.9996,1.9948,1.9931,1.9924,2.002,2.0021,2.0022,2.0022,0,0,1.9817,1.9847,1.9841,1.9847,1.9866,1.9862,1.9852,1.9856,1.9852,1.9861,1.9851,1.9849,1.9869,1.9873,1.9892,1.9881,1.9837,1.9904,1.9905,1.9889,1.9798,1.9779,1.9771,1.9852,1.9851,1.985,1.9796,0,1.9764,1.9747,1.9774,1.975,1.9745,1.9782,1.9772,1.9782,1.9797,1.9795,1.9811,1.9808,1.9836,1.9838,1.9828,1.9844,1.9818,1.9849,1.9842,1.9841,1.9835,1.9762,1.9742,1.969,1.979,1.9789,1.9788,0,1.9699,1.9705,1.9681,1.9702,1.9701,1.9691,1.9697,1.9695,1.9707,1.9719,1.9723,1.9747,1.9737,1.9768,1.9753,1.9773,1.9772,1.978,1.9778,1.9777,1.981,1.9756,1.9675,1.9666,1.9778,1.9779,1.9779,0,1.9633,1.9635,1.9621,1.9626,1.965,1.9642,1.9652,1.9666,1.9666,1.9672,1.9672,1.9676,1.9677,1.9679,1.9703,1.9724,1.9685,1.9718,1.9693,1.9692,1.9681,1.9681,1.9596,1.9684,1.9684,1.9684,1.9684,0,1.957,1.9553,1.9592,1.9583,1.9565,1.9597,1.9578,1.9591,1.9604,1.9597,1.9629,1.9622,1.9655,1.9652,1.9671,1.9655,1.9656,1.9664,1.9668,1.9659,1.9658,1.9657,1.9661,1.9682,1.9683,1.9683,1.9683,0,1.9492,1.9518,1.9504,1.9529,1.9535,1.952,1.9541,1.9533,1.9551,1.9542,1.9542,1.9569,1.9566,1.9591,1.9593,1.9606,1.958,1.9593,1.9576,1.9579,1.9551,1.9553,1.9461,1.945,1.9547,1.9546,1.9546,0,1.9449,1.9437,1.946,1.9459,1.9467,1.9464,1.9465,1.9496,1.9496,1.9509,1.95,1.95,1.9502,1.9496,1.9515,1.9517,1.9528,1.9496,1.9528,1.9519,1.9525,1.9524,1.9522,1.9488,1.9487,1.9486,1.9485,0,1.9368,1.9382,1.9383,1.9388,1.9389,1.9394,1.9402,1.9399,1.9432,1.943,1.9428,1.943,1.9433,1.9432,1.9438,1.9447,1.947,1.9475,1.9469,1.9458,1.9448,1.9451,1.9555,1.9476,1.9477,1.9478,1.9478,1.9479,1.9305,1.9296,1.9311,1.9311,1.932,1.9327,1.932,1.9338,1.9337,1.9342,1.9361,1.9355,1.9368,1.9378,1.9385,1.9381,1.9396,1.9388,1.9385,1.9382,1.9376,1.9451,1.9382,1.9382,1.9383,1.9383,1.9383,0,1.9224,1.9236,1.9236,1.9246,1.9246,1.9271,1.928,1.9278,1.9273,1.9284,1.9285,1.9283,1.9283,1.9303,1.9305,1.9297,1.9308,1.9297,1.9296,1.9298,1.9363,1.9367,1.9288,1.9288,1.9288,1.9288,1.9288,1.9288,1.9182,1.9167,1.9183,1.9173,1.9185,1.9181,1.9184,1.919,1.9199,1.9195,1.9195,1.9209,1.9223,1.9226,1.9227,1.9233,1.9231,1.9215,1.9224,1.9284,1.9293,1.9302,1.9306,1.9215,1.9215,1.9159,1.9158,1.9158]}]]